Year,Month,Day,Hour,Minute,Value (Times are PST for temperature in C)
2005,08,25,00,00,14.00
2005,08,25,00,01,14.00
2005,08,25,00,02,14.00
2005,08,25,00,03,14.00
2005,08,25,00,04,14.00
2005,08,25,00,05,14.10
2005,08,25,00,06,14.10
2005,08,25,00,07,14.10
2005,08,25,00,08,14.10
2005,08,25,00,09,14.10
2005,08,25,00,10,14.10
2005,08,25,00,11,14.10
2005,08,25,00,12,14.10
2005,08,25,00,13,14.10
2005,08,25,00,14,14.10
2005,08,25,00,15,14.10
2005,08,25,00,16,14.10
2005,08,25,00,17,14.10
2005,08,25,00,18,14.10
2005,08,25,00,19,14.10
2005,08,25,00,20,14.00
2005,08,25,00,21,14.00
2005,08,25,00,22,14.00
2005,08,25,00,23,14.00
2005,08,25,00,24,13.90
2005,08,25,00,25,13.90
2005,08,25,00,26,13.90
2005,08,25,00,27,13.90
2005,08,25,00,28,13.90
2005,08,25,00,29,13.90
2005,08,25,00,30,13.80
2005,08,25,00,31,13.80
2005,08,25,00,32,13.80
2005,08,25,00,33,13.80
2005,08,25,00,34,13.80
2005,08,25,00,35,13.80
2005,08,25,00,36,13.70
2005,08,25,00,37,13.70
2005,08,25,00,38,13.70
2005,08,25,00,39,13.70
2005,08,25,00,40,13.70
2005,08,25,00,41,13.70
2005,08,25,00,42,13.70
2005,08,25,00,43,13.70
2005,08,25,00,44,13.70
2005,08,25,00,45,13.70
2005,08,25,00,46,13.60
2005,08,25,00,47,13.60
2005,08,25,00,48,13.60
2005,08,25,00,49,13.50
2005,08,25,00,50,13.50
2005,08,25,00,51,13.40
2005,08,25,00,52,13.40
2005,08,25,00,53,13.40
2005,08,25,00,54,13.30
2005,08,25,00,55,13.30
2005,08,25,00,56,13.30
2005,08,25,00,57,13.30
2005,08,25,00,58,13.30
2005,08,25,00,59,13.30
2005,08,25,01,00,13.30
2005,08,25,01,01,13.30
2005,08,25,01,02,13.30
2005,08,25,01,03,13.30
2005,08,25,01,04,13.30
2005,08,25,01,05,13.20
2005,08,25,01,06,13.20
2005,08,25,01,07,13.20
2005,08,25,01,08,13.20
2005,08,25,01,09,13.20
2005,08,25,01,10,13.20
2005,08,25,01,11,13.20
2005,08,25,01,12,13.20
2005,08,25,01,13,13.20
2005,08,25,01,14,13.20
2005,08,25,01,15,13.20
2005,08,25,01,16,13.30
2005,08,25,01,17,13.30
2005,08,25,01,18,13.30
2005,08,25,01,19,13.20
2005,08,25,01,20,13.20
2005,08,25,01,21,13.20
2005,08,25,01,22,13.20
2005,08,25,01,23,13.10
2005,08,25,01,24,13.10
2005,08,25,01,25,13.00
2005,08,25,01,26,12.90
2005,08,25,01,27,12.90
2005,08,25,01,28,12.80
2005,08,25,01,29,12.80
2005,08,25,01,30,12.80
2005,08,25,01,31,12.80
2005,08,25,01,32,12.80
2005,08,25,01,33,12.80
2005,08,25,01,34,12.70
2005,08,25,01,35,12.70
2005,08,25,01,36,12.70
2005,08,25,01,37,12.60
2005,08,25,01,38,12.60
2005,08,25,01,39,12.60
2005,08,25,01,40,12.60
2005,08,25,01,41,12.60
2005,08,25,01,42,12.60
2005,08,25,01,43,12.50
2005,08,25,01,44,12.50
2005,08,25,01,45,12.50
2005,08,25,01,46,12.50
2005,08,25,01,47,12.50
2005,08,25,01,48,12.50
2005,08,25,01,49,12.50
2005,08,25,01,50,12.50
2005,08,25,01,51,12.50
2005,08,25,01,52,12.40
2005,08,25,01,53,12.40
2005,08,25,01,54,12.40
2005,08,25,01,55,12.30
2005,08,25,01,56,12.30
2005,08,25,01,57,12.30
2005,08,25,01,58,12.30
2005,08,25,01,59,12.30
2005,08,25,02,00,12.30
2005,08,25,02,01,12.30
2005,08,25,02,02,12.30
2005,08,25,02,03,12.30
2005,08,25,02,04,12.30
2005,08,25,02,05,12.30
2005,08,25,02,06,12.30
2005,08,25,02,07,12.20
2005,08,25,02,08,12.20
2005,08,25,02,09,12.20
2005,08,25,02,10,12.20
2005,08,25,02,11,12.20
2005,08,25,02,12,12.20
2005,08,25,02,13,12.20
2005,08,25,02,14,12.20
2005,08,25,02,15,12.10
2005,08,25,02,16,12.10
2005,08,25,02,17,12.10
2005,08,25,02,18,12.10
2005,08,25,02,19,12.20
2005,08,25,02,20,12.20
2005,08,25,02,21,12.20
2005,08,25,02,22,12.20
2005,08,25,02,23,12.30
2005,08,25,02,24,12.30
2005,08,25,02,25,12.30
2005,08,25,02,26,12.30
2005,08,25,02,27,12.30
2005,08,25,02,28,12.30
2005,08,25,02,29,12.30
2005,08,25,02,30,12.30
2005,08,25,02,31,12.30
2005,08,25,02,32,12.30
2005,08,25,02,33,12.30
2005,08,25,02,34,12.30
2005,08,25,02,35,12.30
2005,08,25,02,36,12.30
2005,08,25,02,37,12.30
2005,08,25,02,38,12.30
2005,08,25,02,39,12.30
2005,08,25,02,40,12.30
2005,08,25,02,41,12.30
2005,08,25,02,42,12.30
2005,08,25,02,43,12.30
2005,08,25,02,44,12.30
2005,08,25,02,45,12.30
2005,08,25,02,46,12.30
2005,08,25,02,47,12.30
2005,08,25,02,48,12.30
2005,08,25,02,49,12.30
2005,08,25,02,50,12.30
2005,08,25,02,51,12.30
2005,08,25,02,52,12.30
2005,08,25,02,53,12.30
2005,08,25,02,54,12.30
2005,08,25,02,55,12.30
2005,08,25,02,56,12.30
2005,08,25,02,57,12.30
2005,08,25,02,58,12.20
2005,08,25,02,59,12.20
2005,08,25,03,00,12.20
2005,08,25,03,01,12.20
2005,08,25,03,02,12.20
2005,08,25,03,03,12.20
2005,08,25,03,04,12.10
2005,08,25,03,05,12.10
2005,08,25,03,06,12.10
2005,08,25,03,07,12.10
2005,08,25,03,08,12.10
2005,08,25,03,09,12.10
2005,08,25,03,10,12.10
2005,08,25,03,11,12.10
2005,08,25,03,12,12.10
2005,08,25,03,13,12.20
2005,08,25,03,14,12.30
2005,08,25,03,15,12.30
2005,08,25,03,16,12.30
2005,08,25,03,17,12.30
2005,08,25,03,18,12.40
2005,08,25,03,19,12.40
2005,08,25,03,20,12.40
2005,08,25,03,21,12.40
2005,08,25,03,22,12.50
2005,08,25,03,23,12.50
2005,08,25,03,24,12.50
2005,08,25,03,25,12.40
2005,08,25,03,26,12.40
2005,08,25,03,27,12.40
2005,08,25,03,28,12.40
2005,08,25,03,29,12.40
2005,08,25,03,30,12.40
2005,08,25,03,31,12.40
2005,08,25,03,32,12.30
2005,08,25,03,33,12.30
2005,08,25,03,34,12.30
2005,08,25,03,35,12.30
2005,08,25,03,36,12.30
2005,08,25,03,37,12.30
2005,08,25,03,38,12.30
2005,08,25,03,39,12.30
2005,08,25,03,40,12.30
2005,08,25,03,41,12.30
2005,08,25,03,42,12.30
2005,08,25,03,43,12.30
2005,08,25,03,44,12.20
2005,08,25,03,45,12.20
2005,08,25,03,46,12.20
2005,08,25,03,47,12.20
2005,08,25,03,48,12.20
2005,08,25,03,49,12.20
2005,08,25,03,50,12.10
2005,08,25,03,51,12.10
2005,08,25,03,52,12.10
2005,08,25,03,53,12.10
2005,08,25,03,54,12.10
2005,08,25,03,55,12.00
2005,08,25,03,56,12.00
2005,08,25,03,57,12.00
2005,08,25,03,58,12.00
2005,08,25,03,59,12.00
2005,08,25,04,00,12.00
2005,08,25,04,01,12.00
2005,08,25,04,02,12.00
2005,08,25,04,03,12.00
2005,08,25,04,04,12.00
2005,08,25,04,05,12.00
2005,08,25,04,06,11.90
2005,08,25,04,07,11.90
2005,08,25,04,08,11.90
2005,08,25,04,09,11.90
2005,08,25,04,10,11.90
2005,08,25,04,11,11.80
2005,08,25,04,12,11.80
2005,08,25,04,13,11.80
2005,08,25,04,14,11.80
2005,08,25,04,15,11.80
2005,08,25,04,16,11.80
2005,08,25,04,17,11.70
2005,08,25,04,18,11.70
2005,08,25,04,19,11.60
2005,08,25,04,20,11.60
2005,08,25,04,21,11.60
2005,08,25,04,22,11.60
2005,08,25,04,23,11.50
2005,08,25,04,24,11.40
2005,08,25,04,25,11.40
2005,08,25,04,26,11.40
2005,08,25,04,27,11.30
2005,08,25,04,28,11.30
2005,08,25,04,29,11.30
2005,08,25,04,30,11.30
2005,08,25,04,31,11.30
2005,08,25,04,32,11.30
2005,08,25,04,33,11.30
2005,08,25,04,34,11.30
2005,08,25,04,35,11.30
2005,08,25,04,36,11.40
2005,08,25,04,37,11.40
2005,08,25,04,38,11.50
2005,08,25,04,39,11.60
2005,08,25,04,40,11.60
2005,08,25,04,41,11.60
2005,08,25,04,42,11.60
2005,08,25,04,43,11.70
2005,08,25,04,44,11.70
2005,08,25,04,45,11.70
2005,08,25,04,46,11.80
2005,08,25,04,47,11.80
2005,08,25,04,48,11.70
2005,08,25,04,49,11.70
2005,08,25,04,50,11.60
2005,08,25,04,51,11.60
2005,08,25,04,52,11.60
2005,08,25,04,53,11.60
2005,08,25,04,54,11.60
2005,08,25,04,55,11.70
2005,08,25,04,56,11.70
2005,08,25,04,57,11.70
2005,08,25,04,58,11.80
2005,08,25,04,59,11.80
2005,08,25,05,00,11.90
2005,08,25,05,01,11.90
2005,08,25,05,02,12.00
2005,08,25,05,03,12.00
2005,08,25,05,04,12.00
2005,08,25,05,05,12.10
2005,08,25,05,06,12.10
2005,08,25,05,07,12.10
2005,08,25,05,08,12.10
2005,08,25,05,09,12.10
2005,08,25,05,10,12.00
2005,08,25,05,11,12.00
2005,08,25,05,12,12.00
2005,08,25,05,13,12.00
2005,08,25,05,14,12.00
2005,08,25,05,15,11.90
2005,08,25,05,16,11.90
2005,08,25,05,17,11.90
2005,08,25,05,18,11.90
2005,08,25,05,19,11.90
2005,08,25,05,20,11.90
2005,08,25,05,21,11.90
2005,08,25,05,22,11.90
2005,08,25,05,23,11.80
2005,08,25,05,24,11.80
2005,08,25,05,25,11.80
2005,08,25,05,26,11.80
2005,08,25,05,27,11.80
2005,08,25,05,28,11.70
2005,08,25,05,29,11.70
2005,08,25,05,30,11.70
2005,08,25,05,31,11.70
2005,08,25,05,32,11.70
2005,08,25,05,33,11.70
2005,08,25,05,34,11.70
2005,08,25,05,35,11.70
2005,08,25,05,36,11.70
2005,08,25,05,37,11.70
2005,08,25,05,38,11.70
2005,08,25,05,39,11.70
2005,08,25,05,40,11.80
2005,08,25,05,41,11.80
2005,08,25,05,42,11.80
2005,08,25,05,43,11.80
2005,08,25,05,44,11.80
2005,08,25,05,45,11.80
2005,08,25,05,46,11.80
2005,08,25,05,47,11.80
2005,08,25,05,48,11.80
2005,08,25,05,49,11.80
2005,08,25,05,50,11.70
2005,08,25,05,51,11.70
2005,08,25,05,52,11.60
2005,08,25,05,53,11.60
2005,08,25,05,54,11.60
2005,08,25,05,55,11.60
2005,08,25,05,56,11.60
2005,08,25,05,57,11.50
2005,08,25,05,58,11.40
2005,08,25,05,59,11.40
2005,08,25,06,00,11.40
2005,08,25,06,01,11.40
2005,08,25,06,02,11.40
2005,08,25,06,03,11.40
2005,08,25,06,04,11.40
2005,08,25,06,05,11.30
2005,08,25,06,06,11.20
2005,08,25,06,07,11.20
2005,08,25,06,08,11.10
2005,08,25,06,09,11.10
2005,08,25,06,10,11.10
2005,08,25,06,11,11.10
2005,08,25,06,12,11.10
2005,08,25,06,13,11.10
2005,08,25,06,14,11.10
2005,08,25,06,15,11.10
2005,08,25,06,16,11.10
2005,08,25,06,17,11.10
2005,08,25,06,18,11.10
2005,08,25,06,19,11.10
2005,08,25,06,20,11.10
2005,08,25,06,21,11.10
2005,08,25,06,22,11.10
2005,08,25,06,23,11.10
2005,08,25,06,24,11.10
2005,08,25,06,25,11.10
2005,08,25,06,26,11.10
2005,08,25,06,27,11.10
2005,08,25,06,28,11.10
2005,08,25,06,29,11.10
2005,08,25,06,30,11.10
2005,08,25,06,31,11.10
2005,08,25,06,32,11.10
2005,08,25,06,33,11.10
2005,08,25,06,34,11.10
2005,08,25,06,35,11.00
2005,08,25,06,36,10.90
2005,08,25,06,37,10.90
2005,08,25,06,38,10.90
2005,08,25,06,39,11.00
2005,08,25,06,40,11.10
2005,08,25,06,41,11.10
2005,08,25,06,42,11.30
2005,08,25,06,43,11.40
2005,08,25,06,44,11.40
2005,08,25,06,45,11.60
2005,08,25,06,46,11.60
2005,08,25,06,47,11.70
2005,08,25,06,48,11.80
2005,08,25,06,49,11.90
2005,08,25,06,50,12.00
2005,08,25,06,51,12.10
2005,08,25,06,52,12.10
2005,08,25,06,53,12.20
2005,08,25,06,54,12.30
2005,08,25,06,55,12.30
2005,08,25,06,56,12.30
2005,08,25,06,57,12.30
2005,08,25,06,58,12.30
2005,08,25,06,59,12.30
2005,08,25,07,00,12.30
2005,08,25,07,01,12.30
2005,08,25,07,02,12.30
2005,08,25,07,03,12.30
2005,08,25,07,04,12.30
2005,08,25,07,05,12.40
2005,08,25,07,06,12.50
2005,08,25,07,07,12.50
2005,08,25,07,08,12.60
2005,08,25,07,09,12.70
2005,08,25,07,10,12.80
2005,08,25,07,11,12.80
2005,08,25,07,12,12.90
2005,08,25,07,13,12.90
2005,08,25,07,14,13.00
2005,08,25,07,15,13.00
2005,08,25,07,16,13.10
2005,08,25,07,17,13.10
2005,08,25,07,18,13.10
2005,08,25,07,19,13.20
2005,08,25,07,20,13.30
2005,08,25,07,21,13.30
2005,08,25,07,22,13.30
2005,08,25,07,23,13.40
2005,08,25,07,24,13.40
2005,08,25,07,25,13.50
2005,08,25,07,26,13.50
2005,08,25,07,27,13.60
2005,08,25,07,28,13.70
2005,08,25,07,29,13.70
2005,08,25,07,30,13.70
2005,08,25,07,31,13.70
2005,08,25,07,32,13.90
2005,08,25,07,33,14.00
2005,08,25,07,34,14.00
2005,08,25,07,35,14.10
2005,08,25,07,36,14.30
2005,08,25,07,37,14.40
2005,08,25,07,38,14.50
2005,08,25,07,39,14.60
2005,08,25,07,40,14.60
2005,08,25,07,41,14.70
2005,08,25,07,42,14.80
2005,08,25,07,43,14.80
2005,08,25,07,44,14.90
2005,08,25,07,45,15.00
2005,08,25,07,46,15.00
2005,08,25,07,47,15.10
2005,08,25,07,48,15.10
2005,08,25,07,49,15.20
2005,08,25,07,50,15.20
2005,08,25,07,51,15.30
2005,08,25,07,52,15.30
2005,08,25,07,53,15.30
2005,08,25,07,54,15.30
2005,08,25,07,55,15.40
2005,08,25,07,56,15.50
2005,08,25,07,57,15.50
2005,08,25,07,58,15.50
2005,08,25,07,59,15.60
2005,08,25,08,00,15.60
2005,08,25,08,01,15.70
2005,08,25,08,02,15.70
2005,08,25,08,03,15.80
2005,08,25,08,04,15.80
2005,08,25,08,05,15.90
2005,08,25,08,06,16.00
2005,08,25,08,07,16.10
2005,08,25,08,08,16.20
2005,08,25,08,09,16.30
2005,08,25,08,10,16.30
2005,08,25,08,11,16.50
2005,08,25,08,12,16.60
2005,08,25,08,13,16.70
2005,08,25,08,14,16.90
2005,08,25,08,15,17.00
2005,08,25,08,16,17.20
2005,08,25,08,17,17.30
2005,08,25,08,18,17.40
2005,08,25,08,19,17.50
2005,08,25,08,20,17.50
2005,08,25,08,21,17.60
2005,08,25,08,22,17.70
2005,08,25,08,23,17.80
2005,08,25,08,24,17.90
2005,08,25,08,25,17.90
2005,08,25,08,26,17.90
2005,08,25,08,27,17.90
2005,08,25,08,28,17.90
2005,08,25,08,29,17.90
2005,08,25,08,30,17.90
2005,08,25,08,31,17.80
2005,08,25,08,32,17.80
2005,08,25,08,33,17.80
2005,08,25,08,34,17.80
2005,08,25,08,35,17.80
2005,08,25,08,36,17.90
2005,08,25,08,37,17.90
2005,08,25,08,38,17.90
2005,08,25,08,39,17.90
2005,08,25,08,40,17.90
2005,08,25,08,41,17.90
2005,08,25,08,42,17.90
2005,08,25,08,43,17.90
2005,08,25,08,44,18.00
2005,08,25,08,45,18.10
2005,08,25,08,46,18.10
2005,08,25,08,47,18.10
2005,08,25,08,48,18.10
2005,08,25,08,49,18.10
2005,08,25,08,50,18.10
2005,08,25,08,51,18.10
2005,08,25,08,52,18.10
2005,08,25,08,53,18.10
2005,08,25,08,54,18.10
2005,08,25,08,55,18.10
2005,08,25,08,56,18.10
2005,08,25,08,57,18.20
2005,08,25,08,58,18.20
2005,08,25,08,59,18.20
2005,08,25,09,00,18.20
2005,08,25,09,01,18.30
2005,08,25,09,02,18.30
2005,08,25,09,03,18.30
2005,08,25,09,04,18.30
2005,08,25,09,05,18.30
2005,08,25,09,06,18.30
2005,08,25,09,07,18.30
2005,08,25,09,08,18.40
2005,08,25,09,09,18.40
2005,08,25,09,10,18.40
2005,08,25,09,11,18.50
2005,08,25,09,12,18.50
2005,08,25,09,13,18.60
2005,08,25,09,14,18.60
2005,08,25,09,15,18.60
2005,08,25,09,16,18.60
2005,08,25,09,17,18.70
2005,08,25,09,18,18.70
2005,08,25,09,19,18.80
2005,08,25,09,20,18.80
2005,08,25,09,21,18.90
2005,08,25,09,22,18.90
2005,08,25,09,23,18.90
2005,08,25,09,24,18.90
2005,08,25,09,25,18.90
2005,08,25,09,26,18.90
2005,08,25,09,27,18.90
2005,08,25,09,28,19.00
2005,08,25,09,29,19.10
2005,08,25,09,30,19.10
2005,08,25,09,31,19.10
2005,08,25,09,32,19.10
2005,08,25,09,33,19.10
2005,08,25,09,34,19.20
2005,08,25,09,35,19.30
2005,08,25,09,36,19.30
2005,08,25,09,37,19.30
2005,08,25,09,38,19.30
2005,08,25,09,39,19.30
2005,08,25,09,40,19.30
2005,08,25,09,41,19.30
2005,08,25,09,42,19.30
2005,08,25,09,43,19.30
2005,08,25,09,44,19.30
2005,08,25,09,45,19.40
2005,08,25,09,46,19.40
2005,08,25,09,47,19.50
2005,08,25,09,48,19.60
2005,08,25,09,49,19.60
2005,08,25,09,50,19.60
2005,08,25,09,51,19.50
2005,08,25,09,52,19.50
2005,08,25,09,53,19.50
2005,08,25,09,54,19.50
2005,08,25,09,55,19.60
2005,08,25,09,56,19.60
2005,08,25,09,57,19.70
2005,08,25,09,58,19.70
2005,08,25,09,59,19.80
2005,08,25,10,00,19.80
2005,08,25,10,01,19.80
2005,08,25,10,02,19.90
2005,08,25,10,03,19.90
2005,08,25,10,04,19.90
2005,08,25,10,05,19.90
2005,08,25,10,06,20.00
2005,08,25,10,07,20.10
2005,08,25,10,08,20.10
2005,08,25,10,09,20.20
2005,08,25,10,10,20.20
2005,08,25,10,11,20.20
2005,08,25,10,12,20.20
2005,08,25,10,13,20.20
2005,08,25,10,14,20.30
2005,08,25,10,15,20.40
2005,08,25,10,16,20.50
2005,08,25,10,17,20.50
2005,08,25,10,18,20.60
2005,08,25,10,19,20.60
2005,08,25,10,20,20.60
2005,08,25,10,21,20.70
2005,08,25,10,22,20.80
2005,08,25,10,23,20.80
2005,08,25,10,24,20.80
2005,08,25,10,25,20.70
2005,08,25,10,26,20.80
2005,08,25,10,27,20.80
2005,08,25,10,28,20.90
2005,08,25,10,29,21.00
2005,08,25,10,30,21.00
2005,08,25,10,31,21.10
2005,08,25,10,32,21.20
2005,08,25,10,33,21.20
2005,08,25,10,34,21.30
2005,08,25,10,35,21.30
2005,08,25,10,36,21.30
2005,08,25,10,37,21.30
2005,08,25,10,38,21.30
2005,08,25,10,39,21.30
2005,08,25,10,40,21.30
2005,08,25,10,41,21.40
2005,08,25,10,42,21.40
2005,08,25,10,43,21.40
2005,08,25,10,44,21.40
2005,08,25,10,45,21.30
2005,08,25,10,46,21.40
2005,08,25,10,47,21.50
2005,08,25,10,48,21.60
2005,08,25,10,49,21.60
2005,08,25,10,50,21.60
2005,08,25,10,51,21.60
2005,08,25,10,52,21.60
2005,08,25,10,53,21.60
2005,08,25,10,54,21.60
2005,08,25,10,55,21.60
2005,08,25,10,56,21.70
2005,08,25,10,57,21.80
2005,08,25,10,58,21.80
2005,08,25,10,59,21.90
2005,08,25,11,00,21.90
2005,08,25,11,01,22.00
2005,08,25,11,02,22.00
2005,08,25,11,03,22.00
2005,08,25,11,04,21.90
2005,08,25,11,05,21.90
2005,08,25,11,06,21.90
2005,08,25,11,07,22.00
2005,08,25,11,08,22.00
2005,08,25,11,09,22.10
2005,08,25,11,10,22.20
2005,08,25,11,11,22.20
2005,08,25,11,12,22.10
2005,08,25,11,13,22.10
2005,08,25,11,14,22.10
2005,08,25,11,15,22.10
2005,08,25,11,16,22.10
2005,08,25,11,17,22.10
2005,08,25,11,18,22.10
2005,08,25,11,19,22.10
2005,08,25,11,20,22.10
2005,08,25,11,21,22.20
2005,08,25,11,22,22.20
2005,08,25,11,23,22.20
2005,08,25,11,24,22.20
2005,08,25,11,25,22.20
2005,08,25,11,26,22.20
2005,08,25,11,27,22.30
2005,08,25,11,28,22.40
2005,08,25,11,29,22.50
2005,08,25,11,30,22.50
2005,08,25,11,31,22.50
2005,08,25,11,32,22.40
2005,08,25,11,33,22.40
2005,08,25,11,34,22.50
2005,08,25,11,35,22.50
2005,08,25,11,36,22.50
2005,08,25,11,37,22.50
2005,08,25,11,38,22.60
2005,08,25,11,39,22.50
2005,08,25,11,40,22.50
2005,08,25,11,41,22.50
2005,08,25,11,42,22.50
2005,08,25,11,43,22.50
2005,08,25,11,44,22.60
2005,08,25,11,45,22.60
2005,08,25,11,46,22.60
2005,08,25,11,47,22.70
2005,08,25,11,48,22.70
2005,08,25,11,49,22.70
2005,08,25,11,50,22.70
2005,08,25,11,51,22.70
2005,08,25,11,52,22.60
2005,08,25,11,53,22.60
2005,08,25,11,54,22.60
2005,08,25,11,55,22.70
2005,08,25,11,56,22.60
2005,08,25,11,57,22.60
2005,08,25,11,58,22.50
2005,08,25,11,59,22.50
2005,08,25,12,00,22.60
2005,08,25,12,01,22.60
2005,08,25,12,02,22.60
2005,08,25,12,03,22.60
2005,08,25,12,04,22.60
2005,08,25,12,05,22.50
2005,08,25,12,06,22.50
2005,08,25,12,07,22.50
2005,08,25,12,08,22.50
2005,08,25,12,09,22.50
2005,08,25,12,10,22.40
2005,08,25,12,11,22.40
2005,08,25,12,12,22.50
2005,08,25,12,13,22.60
2005,08,25,12,14,22.60
2005,08,25,12,15,22.70
2005,08,25,12,16,22.70
2005,08,25,12,17,22.80
2005,08,25,12,18,22.80
2005,08,25,12,19,22.80
2005,08,25,12,20,22.80
2005,08,25,12,21,22.80
2005,08,25,12,22,22.80
2005,08,25,12,23,22.80
2005,08,25,12,24,22.70
2005,08,25,12,25,22.70
2005,08,25,12,26,22.70
2005,08,25,12,27,22.80
2005,08,25,12,28,22.90
2005,08,25,12,29,22.90
2005,08,25,12,30,22.90
2005,08,25,12,31,22.90
2005,08,25,12,32,22.80
2005,08,25,12,33,22.80
2005,08,25,12,34,22.80
2005,08,25,12,35,22.90
2005,08,25,12,36,22.90
2005,08,25,12,37,22.90
2005,08,25,12,38,22.80
2005,08,25,12,39,22.70
2005,08,25,12,40,22.70
2005,08,25,12,41,22.70
2005,08,25,12,42,22.60
2005,08,25,12,43,22.60
2005,08,25,12,44,22.60
2005,08,25,12,45,22.60
2005,08,25,12,46,22.70
2005,08,25,12,47,22.70
2005,08,25,12,48,22.70
2005,08,25,12,49,22.80
2005,08,25,12,50,22.80
2005,08,25,12,51,22.90
2005,08,25,12,52,22.90
2005,08,25,12,53,23.00
2005,08,25,12,54,23.10
2005,08,25,12,55,23.20
2005,08,25,12,56,23.20
2005,08,25,12,57,23.30
2005,08,25,12,58,23.30
2005,08,25,12,59,23.30
2005,08,25,13,00,23.40
2005,08,25,13,01,23.40
2005,08,25,13,02,23.40
2005,08,25,13,03,23.30
2005,08,25,13,04,23.30
2005,08,25,13,05,23.30
2005,08,25,13,06,23.40
2005,08,25,13,07,23.40
2005,08,25,13,08,23.40
2005,08,25,13,09,23.40
2005,08,25,13,10,23.40
2005,08,25,13,11,23.50
2005,08,25,13,12,23.60
2005,08,25,13,13,23.60
2005,08,25,13,14,23.60
2005,08,25,13,15,23.60
2005,08,25,13,16,23.60
2005,08,25,13,17,23.60
2005,08,25,13,18,23.60
2005,08,25,13,19,23.60
2005,08,25,13,20,23.60
2005,08,25,13,21,23.70
2005,08,25,13,22,23.70
2005,08,25,13,23,23.70
2005,08,25,13,24,23.80
2005,08,25,13,25,23.90
2005,08,25,13,26,24.00
2005,08,25,13,27,24.10
2005,08,25,13,28,24.10
2005,08,25,13,29,24.10
2005,08,25,13,30,24.20
2005,08,25,13,31,24.20
2005,08,25,13,32,24.20
2005,08,25,13,33,24.20
2005,08,25,13,34,24.10
2005,08,25,13,35,24.10
2005,08,25,13,36,24.10
2005,08,25,13,37,24.10
2005,08,25,13,38,24.10
2005,08,25,13,39,24.20
2005,08,25,13,40,24.30
2005,08,25,13,41,24.40
2005,08,25,13,42,24.40
2005,08,25,13,43,24.50
2005,08,25,13,44,24.50
2005,08,25,13,45,24.50
2005,08,25,13,46,24.60
2005,08,25,13,47,24.60
2005,08,25,13,48,24.60
2005,08,25,13,49,24.50
2005,08,25,13,50,24.50
2005,08,25,13,51,24.40
2005,08,25,13,52,24.30
2005,08,25,13,53,24.20
2005,08,25,13,54,24.20
2005,08,25,13,55,24.10
2005,08,25,13,56,24.10
2005,08,25,13,57,24.10
2005,08,25,13,58,24.10
2005,08,25,13,59,24.10
2005,08,25,14,00,24.10
2005,08,25,14,01,24.10
2005,08,25,14,02,24.10
2005,08,25,14,03,24.10
2005,08,25,14,04,24.20
2005,08,25,14,05,24.20
2005,08,25,14,06,24.30
2005,08,25,14,07,24.30
2005,08,25,14,08,24.30
2005,08,25,14,09,24.40
2005,08,25,14,10,24.40
2005,08,25,14,11,24.50
2005,08,25,14,12,24.50
2005,08,25,14,13,24.50
2005,08,25,14,14,24.50
2005,08,25,14,15,24.60
2005,08,25,14,16,24.70
2005,08,25,14,17,24.80
2005,08,25,14,18,24.80
2005,08,25,14,19,24.80
2005,08,25,14,20,24.80
2005,08,25,14,21,24.80
2005,08,25,14,22,24.90
2005,08,25,14,23,24.80
2005,08,25,14,24,24.70
2005,08,25,14,25,24.60
2005,08,25,14,26,24.60
2005,08,25,14,27,24.60
2005,08,25,14,28,24.60
2005,08,25,14,29,24.60
2005,08,25,14,30,24.50
2005,08,25,14,31,24.50
2005,08,25,14,32,24.50
2005,08,25,14,33,24.60
2005,08,25,14,34,24.60
2005,08,25,14,35,24.60
2005,08,25,14,36,24.50
2005,08,25,14,37,24.50
2005,08,25,14,38,24.50
2005,08,25,14,39,24.50
2005,08,25,14,40,24.40
2005,08,25,14,41,24.50
2005,08,25,14,42,24.60
2005,08,25,14,43,24.70
2005,08,25,14,44,24.70
2005,08,25,14,45,24.70
2005,08,25,14,46,24.70
2005,08,25,14,47,24.70
2005,08,25,14,48,24.80
2005,08,25,14,49,24.80
2005,08,25,14,50,24.90
2005,08,25,14,51,24.90
2005,08,25,14,52,24.90
2005,08,25,14,53,24.90
2005,08,25,14,54,25.00
2005,08,25,14,55,25.10
2005,08,25,14,56,25.20
2005,08,25,14,57,25.20
2005,08,25,14,58,25.10
2005,08,25,14,59,25.10
2005,08,25,15,00,25.10
2005,08,25,15,01,25.10
2005,08,25,15,02,25.20
2005,08,25,15,03,25.20
2005,08,25,15,04,25.20
2005,08,25,15,05,25.10
2005,08,25,15,06,25.20
2005,08,25,15,07,25.20
2005,08,25,15,08,25.10
2005,08,25,15,09,25.10
2005,08,25,15,10,25.00
2005,08,25,15,11,25.00
2005,08,25,15,12,25.10
2005,08,25,15,13,25.10
2005,08,25,15,14,25.20
2005,08,25,15,15,25.10
2005,08,25,15,16,25.10
2005,08,25,15,17,25.10
2005,08,25,15,18,25.10
2005,08,25,15,19,25.20
2005,08,25,15,20,25.20
2005,08,25,15,21,25.10
2005,08,25,15,22,25.20
2005,08,25,15,23,25.10
2005,08,25,15,24,25.00
2005,08,25,15,25,25.00
2005,08,25,15,26,25.00
2005,08,25,15,27,25.00
2005,08,25,15,28,25.00
2005,08,25,15,29,25.00
2005,08,25,15,30,25.00
2005,08,25,15,31,25.00
2005,08,25,15,32,25.00
2005,08,25,15,33,25.00
2005,08,25,15,34,25.00
2005,08,25,15,35,25.10
2005,08,25,15,36,25.20
2005,08,25,15,37,25.20
2005,08,25,15,38,25.20
2005,08,25,15,39,25.20
2005,08,25,15,40,25.20
2005,08,25,15,41,25.20
2005,08,25,15,42,25.20
2005,08,25,15,43,25.10
2005,08,25,15,44,25.10
2005,08,25,15,45,25.10
2005,08,25,15,46,25.20
2005,08,25,15,47,25.20
2005,08,25,15,48,25.10
2005,08,25,15,49,25.10
2005,08,25,15,50,25.20
2005,08,25,15,51,25.20
2005,08,25,15,52,25.20
2005,08,25,15,53,25.20
2005,08,25,15,54,25.20
2005,08,25,15,55,25.20
2005,08,25,15,56,25.30
2005,08,25,15,57,25.40
2005,08,25,15,58,25.50
2005,08,25,15,59,25.40
2005,08,25,16,00,25.40
2005,08,25,16,01,25.40
2005,08,25,16,02,25.50
2005,08,25,16,03,25.60
2005,08,25,16,04,25.80
2005,08,25,16,05,25.90
2005,08,25,16,06,25.90
2005,08,25,16,07,26.00
2005,08,25,16,08,26.00
2005,08,25,16,09,26.00
2005,08,25,16,10,26.00
2005,08,25,16,11,25.90
2005,08,25,16,12,25.70
2005,08,25,16,13,25.70
2005,08,25,16,14,25.70
2005,08,25,16,15,25.80
2005,08,25,16,16,25.80
2005,08,25,16,17,25.90
2005,08,25,16,18,26.00
2005,08,25,16,19,26.00
2005,08,25,16,20,26.00
2005,08,25,16,21,26.10
2005,08,25,16,22,26.10
2005,08,25,16,23,26.10
2005,08,25,16,24,26.10
2005,08,25,16,25,25.70
2005,08,25,16,26,25.60
2005,08,25,16,27,25.70
2005,08,25,16,28,25.90
2005,08,25,16,29,26.00
2005,08,25,16,30,26.10
2005,08,25,16,31,26.10
2005,08,25,16,32,26.00
2005,08,25,16,33,25.80
2005,08,25,16,34,25.60
2005,08,25,16,35,25.50
2005,08,25,16,36,25.40
2005,08,25,16,37,25.30
2005,08,25,16,38,25.20
2005,08,25,16,39,25.10
2005,08,25,16,40,25.00
2005,08,25,16,41,24.90
2005,08,25,16,42,24.70
2005,08,25,16,43,24.50
2005,08,25,16,44,24.30
2005,08,25,16,45,24.10
2005,08,25,16,46,24.10
2005,08,25,16,47,23.90
2005,08,25,16,48,23.80
2005,08,25,16,49,23.90
2005,08,25,16,50,24.00
2005,08,25,16,51,24.10
2005,08,25,16,52,24.30
2005,08,25,16,53,24.50
2005,08,25,16,54,24.60
2005,08,25,16,55,24.70
2005,08,25,16,56,24.80
2005,08,25,16,57,24.80
2005,08,25,16,58,24.90
2005,08,25,16,59,25.00
2005,08,25,17,00,25.10
2005,08,25,17,01,25.00
2005,08,25,17,02,25.10
2005,08,25,17,03,25.10
2005,08,25,17,04,25.10
2005,08,25,17,05,25.10
2005,08,25,17,06,25.20
2005,08,25,17,07,25.20
2005,08,25,17,08,25.30
2005,08,25,17,09,25.50
2005,08,25,17,10,25.60
2005,08,25,17,11,25.60
2005,08,25,17,12,25.60
2005,08,25,17,13,25.60
2005,08,25,17,14,25.60
2005,08,25,17,15,25.60
2005,08,25,17,16,25.50
2005,08,25,17,17,25.50
2005,08,25,17,18,25.40
2005,08,25,17,19,25.40